UWE-3 (39446 NORAD) Tracking and Keplerian Element Data

This shows tracking and keplerian element data for the satellite.

Feedback or suggestion? Click here.




ElementValue
Catalog39446
NameUWE-3
Epoch Orbit58618
Epoch Day286.8040722
Epoch Year2024
RAAN234.2505
Inclination97.7919
Eccentricity0.0057224
Argument of Perigee190.1389
Mean Anonmoly169.8678
Mean Motion14.88428369
Decay Rate0.00010985
L11 39446U 13066AG 24286.80407220 .00010985 00000+0 11537-2 0 9998
L22 39446 97.7919 234.2505 0057224 190.1389 169.8678 14.88428369586188



Live tracking and technical data element details for UWE-3 (NORAD 39446). UWE-3 can be tracked NOW for your location showing map with azimuth and elevation plus other details from your city location.







IsCatalogInMostPopularTable: catalog: 39446, numindb: 443
Update: records affected: 1



GetName: 39446 UWE-3

Hit Count: updated at: Thu, 23 Jan 2025 17:04:13 GMT